Regional Weather Roundup
Issued by NWS

Home | Current Version | Previous Version | Graphics & Text | Print | Product List | Glossary On
Versions: 1 2 3 4 5 6 7 8 9 10 11 12 13 14 15 16 17 18 19 20 21 22 23 24 25 26 27 28 29 30 31 32 33 34 35 36 37 38 39 40 41 42 43 44 45 46 47 48 49 50
000
ASUS43 KBIS 190602
RWRND

NORTH DAKOTA REGIONAL WEATHER ROUNDUP
NATIONAL WEATHER SERVICE BISMARCK ND
100 AM CDT THU APR 19 2018

NOTE: "FAIR" INDICATES FEW OR NO CLOUDS BELOW 12,000 FEET WITH NO
SIGNIFICANT WEATHER AND/OR OBSTRUCTIONS TO VISIBILITY.


NDZ001>003-009>011-017-190700-
NORTHWEST NORTH DAKOTA

CITY           SKY/WX    TMP DP  RH WIND       PRES   REMARKS
WILLISTON      CLOUDY    34  32  92 NE7       30.34S FOG
6HR MIN TEMP:  34; 6HR MAX TEMP:  46;

MINOT          CLEAR     34  32  92 W8        30.32R
MINOT AFB      PTCLDY    28  28  99 NW9       30.31R WCI  20
$$

NDZ018>021-031>035-040>046-190700-
SOUTHWEST NORTH DAKOTA

CITY           SKY/WX    TMP DP  RH WIND       PRES   REMARKS
BISMARCK       CLEAR     31  28  89 CALM      30.33R
6HR MIN TEMP:  28; 6HR MAX TEMP:  49;

DICKINSON      CLEAR     29  28  96 SE5       30.29R FOG
GARRISON         N/A     32  30  92 N3        30.32R
6HR MIN TEMP:  32; 6HR MAX TEMP:  43;

HETTINGER ARPT CLEAR     27  24  89 N3        30.32R
$$

NDZ004>008-012>016-024-026-027-054-190700-
NORTHEAST NORTH DAKOTA

CITY           SKY/WX    TMP DP  RH WIND       PRES   REMARKS
GRAND FORKS    FAIR      31  29  92 CALM      30.31R
GRND FRKS AFB  FAIR      30  27  91 CALM      30.30R
DEVILS LAKE    FAIR      33  26  75 SW5       30.30R
$$

NDZ022-023-025-028>030-036>039-047>053-190700-
SOUTHEAST NORTH DAKOTA

CITY           SKY/WX    TMP DP  RH WIND       PRES   REMARKS
FARGO          FAIR      33  30  88 NW3       30.29R
6HR MIN TEMP:  32; 6HR MAX TEMP:  50;

JAMESTOWN      CLOUDY    34  28  79 NW6       30.29R
$$





USA.gov is the U.S. government's official web portal to all federal, state and local government web resources and services.